Location: Melbourne
(37.8666°S, 145.1333°E)
Time: 19:23:30
(UTC+11:00)

Iridium 21 - Visible Passes

Search period start: 26 January 2015 00:00
Search period end: 05 February 2015 00:00
Orbit: 776 x 779 km, 86.4° (Epoch: 25 January)

Date Brightness Start Highest point End Pass type
(mag) Time Alt. Az. Time Alt. Az. Time Alt. Az.
26 Jan 7.8 21:09:38 10° NW 21:14:14 29° W 21:18:48 10° SSW visible
28 Jan 9.0 21:47:09 10° W 21:48:31 11° WSW 21:49:29 10° WSW visible
29 Jan 8.4 21:10:34 10° NW 21:14:31 21° WSW 21:18:20 10° SSW visible
01 Feb 8.7 21:12:00 10° WNW 21:14:52 14° WSW 21:17:27 10° SW visible
02 Feb 8.7 06:01:54 10° SE 06:04:47 15° ESE 06:07:54 10° ENE visible
